Weather reports worldwide

Advertisment
Missoula MT/Bell Field, United States of America (72773): temperature & dewpoint: 01.07.2020 14:00:00 - 07.07.2020 14:00:00 (MDT)Missoula MT/Bell Field, United States of America (72773): wind speed: 01.07.2020 14:00:00 - 07.07.2020 14:00:00 (MDT)Missoula MT/Bell Field, United States of America (72773): wind direction: 01.07.2020 14:00:00 - 07.07.2020 14:00:00 (MDT)Missoula MT/Bell Field, United States of America (72773): reduced air pressure: 01.07.2020 14:00:00 - 07.07.2020 14:00:00 (MDT)Missoula MT/Bell Field, United States of America (72773): visibility: 01.07.2020 14:00:00 - 07.07.2020 14:00:00 (MDT)Missoula MT/Bell Field, United States of America (72773): precipitation: 01.07.2020 14:00:00 - 07.07.2020 14:00:00 (MDT)
Date & Time tt [°C] td [°C] ff [km/h] ff [kn] dd ppp [hPa] vv [km] rr [mm]
07.07.2020 14:00:00 - - - - - - - -
07.07.2020 13:00:00 18,9 10,6 21 11 NNW 1011,7 16 -
07.07.2020 12:00:00 17,2 11,1 21 11 NW 1011,2 16 0,0
07.07.2020 11:00:00 17,2 10,6 15 8 NW 1011,3 16 0,0
07.07.2020 10:00:00 16,1 10,0 15 8 WNW 1009,8 16 0,0
07.07.2020 09:00:00 16,7 9,4 15 8 NW 1010,2 16 -
07.07.2020 08:00:00 16,7 9,4 16 9 NW 1009,8 16 -
07.07.2020 07:00:00 16,1 8,9 22 12 NNW 1009,7 16 -
07.07.2020 06:00:00 13,9 8,9 16 9 NNW 1008,0 16 0,0
07.07.2020 05:00:00 10,6 8,3 11 6 N 1007,5 16 -
07.07.2020 04:00:00 12,8 8,3 0 0 N 1005,2 16 -
07.07.2020 03:00:00 13,9 8,3 0 0 N 1006,2 16 -
07.07.2020 02:00:00 16,1 8,3 0 0 N 1006,5 16 -
07.07.2020 01:00:00 15,6 7,8 0 0 N 1007,9 16 -
07.07.2020 00:00:00 17,8 7,2 5 3 N 1008,4 16 0,0
06.07.2020 23:00:00 18,9 8,9 5 3 N 1008,6 16 -
06.07.2020 22:00:00 21,7 9,4 15 8 NW 1008,4 16 -
06.07.2020 21:00:00 25,6 10,0 15 8 N 1008,4 16 -
06.07.2020 20:00:00 28,9 5,6 5 3 N 1008,5 16 -
06.07.2020 19:00:00 29,4 5,0 8 4 NW 1009,1 16 -
06.07.2020 18:00:00 28,3 5,6 8 4 N 1010,1 16 0,0
06.07.2020 17:00:00 30,0 5,0 0 0 N 1010,6 16 -
06.07.2020 16:00:00 28,9 3,3 0 0 N 1011,2 16 -
06.07.2020 15:00:00 27,8 6,1 5 3 - 1011,8 16 -
06.07.2020 14:00:00 26,7 7,2 0 0 N 1012,7 16 -
06.07.2020 13:00:00 24,4 8,3 5 3 - 1013,9 16 -
06.07.2020 12:00:00 21,7 6,7 8 4 S 1015,0 16 0,0
06.07.2020 11:00:00 20,0 8,3 0 0 N 1015,6 16 -
06.07.2020 10:00:00 16,7 8,3 0 0 N 1016,1 16 -
06.07.2020 09:00:00 14,4 7,8 0 0 N 1016,3 16 -
06.07.2020 08:00:00 12,8 7,2 0 0 N 1016,5 16 -
06.07.2020 07:00:00 9,4 7,2 5 3 WNW 1016,6 16 -
06.07.2020 06:00:00 8,9 6,1 0 0 N 1016,5 16 0,0
06.07.2020 05:00:00 8,9 6,1 0 0 N 1016,3 16 -
06.07.2020 04:00:00 10,6 6,1 5 3 NE 1015,8 16 -
06.07.2020 03:00:00 10,6 6,1 0 0 N 1015,8 16 -
06.07.2020 02:00:00 11,7 6,1 0 0 N 1015,7 16 -
06.07.2020 01:00:00 13,3 5,6 9 5 N 1015,5 16 -
06.07.2020 00:00:00 13,9 7,2 5 3 NNE 1015,7 16 0,0
05.07.2020 23:00:00 16,7 7,2 8 4 NNW 1015,5 16 -
05.07.2020 22:00:00 19,4 6,1 15 8 WNW 1015,0 16 -
05.07.2020 21:00:00 22,8 5,6 15 8 N 1014,2 16 -
05.07.2020 20:00:00 24,4 5,6 22 12 N 1014,2 16 -
05.07.2020 19:00:00 25,6 6,1 26 14 N 1014,2 16 -
05.07.2020 18:00:00 26,1 6,1 26 14 N 1014,6 16 0,0
05.07.2020 17:00:00 26,7 5,0 15 8 N 1015,0 16 -
05.07.2020 16:00:00 26,7 5,0 21 11 NW 1015,6 16 -
05.07.2020 15:00:00 25,0 4,4 13 7 NW 1016,6 16 -
05.07.2020 14:00:00 24,4 2,8 9 5 - 1017,3 16 -
05.07.2020 13:00:00 23,9 0,6 13 7 NW 1018,0 16 -
05.07.2020 12:00:00 21,7 4,4 - - - 1018,4 16 0,0
05.07.2020 11:00:00 19,4 6,7 0 0 N 1019,2 16 -
05.07.2020 10:00:00 16,7 6,7 0 0 N 1019,8 16 -
05.07.2020 09:00:00 14,4 6,7 0 0 N 1020,3 16 -
05.07.2020 08:00:00 11,7 8,3 0 0 N 1020,3 16 -
05.07.2020 07:00:00 9,4 6,7 0 0 N 1020,2 16 -
05.07.2020 06:00:00 8,9 6,1 0 0 N 1020,0 16 0,0
05.07.2020 05:00:00 10,6 6,1 0 0 N 1019,2 16 -
05.07.2020 04:00:00 10,6 5,6 0 0 N 1018,9 16 -
05.07.2020 03:00:00 10,0 6,1 9 5 N 1018,7 16 -
05.07.2020 02:00:00 12,2 6,7 8 4 - 1018,2 16 -
05.07.2020 01:00:00 12,2 6,7 8 4 NNW 1018,2 16 -
05.07.2020 00:00:00 17,2 5,6 15 8 NW 1017,5 16 0,0
04.07.2020 23:00:00 16,7 3,9 13 7 N 1017,1 16 -
04.07.2020 22:00:00 20,6 1,7 11 6 NNE 1015,9 16 -
04.07.2020 21:00:00 22,2 5,0 13 7 WNW 1015,3 16 -
04.07.2020 20:00:00 25,6 3,3 24 13 NW 1014,0 16 -
04.07.2020 19:00:00 26,7 5,0 26 14 WNW 1013,5 16 -
04.07.2020 18:00:00 27,8 4,4 26 14 NNW 1013,3 16 0,0
04.07.2020 17:00:00 28,3 6,1 28 15 NW 1013,1 16 -
04.07.2020 16:00:00 29,4 6,7 21 11 NNW 1013,3 16 -
04.07.2020 15:00:00 27,8 6,7 16 9 NW 1014,0 16 -
04.07.2020 14:00:00 26,7 6,1 8 4 - 1014,4 16 -
04.07.2020 13:00:00 25,0 8,3 5 3 - 1015,1 16 -
04.07.2020 12:00:00 22,8 10,0 0 0 N 1015,9 16 0,0
04.07.2020 11:00:00 21,1 10,0 5 3 ENE 1016,4 16 -
04.07.2020 10:00:00 17,8 10,0 5 3 - 1016,9 16 -
04.07.2020 09:00:00 16,7 11,1 0 0 N 1017,2 16 -
04.07.2020 08:00:00 13,9 11,1 0 0 N 1017,1 16 -
04.07.2020 07:00:00 12,8 10,6 0 0 N 1016,8 16 -
04.07.2020 06:00:00 10,6 8,9 5 3 NW 1016,9 16 0,0
04.07.2020 05:00:00 11,1 9,4 5 3 NE 1016,1 16 -
04.07.2020 04:00:00 13,3 10,0 0 0 N 1015,7 16 -
04.07.2020 03:00:00 12,8 9,4 0 0 N 1015,7 16 -
04.07.2020 02:00:00 13,9 10,0 8 4 N 1015,7 16 -
04.07.2020 01:00:00 15,6 11,1 0 0 N 1015,7 16 -
04.07.2020 00:00:00 18,3 11,1 0 0 N 1014,9 16 0,0
03.07.2020 23:00:00 19,4 11,7 0 0 N 1014,2 16 -
03.07.2020 22:00:00 22,8 10,0 8 4 SSE 1013,4 16 -
03.07.2020 21:00:00 25,0 8,9 24 13 SE 1012,7 16 -
03.07.2020 20:00:00 27,8 7,8 8 4 SE 1011,6 16 -
03.07.2020 19:00:00 29,4 6,7 8 4 NW 1011,2 16 -
03.07.2020 18:00:00 29,4 6,1 5 3 NNW 1011,5 16 0,0
03.07.2020 17:00:00 29,4 5,6 18 10 WNW 1012,2 16 -
03.07.2020 16:00:00 29,4 8,9 9 5 WNW 1012,0 16 -
03.07.2020 15:00:00 27,8 7,8 5 3 - 1012,9 16 -
03.07.2020 14:00:00 25,0 11,1 5 3 - 1014,3 16 -
03.07.2020 13:00:00 23,9 11,7 5 3 SSW 1015,1 16 -
03.07.2020 12:00:00 21,7 10,6 8 4 - 1016,0 16 0,0
03.07.2020 11:00:00 18,9 9,4 0 0 N 1017,1 16 -
03.07.2020 10:00:00 16,1 8,9 0 0 N 1017,6 16 -
03.07.2020 09:00:00 13,3 8,9 5 3 SSE 1018,0 16 -
03.07.2020 08:00:00 11,1 8,9 0 0 N 1018,5 16 -
03.07.2020 07:00:00 8,9 7,8 0 0 N 1018,0 16 -
03.07.2020 06:00:00 8,3 6,7 0 0 N 1018,0 16 0,0
03.07.2020 05:00:00 8,3 6,7 0 0 N 1017,6 16 -
03.07.2020 04:00:00 8,9 7,2 8 4 WNW 1017,1 16 -
03.07.2020 03:00:00 10,0 7,8 0 0 N 1016,9 16 -
03.07.2020 02:00:00 10,6 7,8 0 0 N 1016,4 16 -
03.07.2020 01:00:00 12,2 7,8 0 0 N 1016,1 16 -
03.07.2020 00:00:00 12,8 8,9 11 6 WNW 1016,0 16 0,0
02.07.2020 23:00:00 15,6 8,3 8 4 WNW 1015,8 16 -
02.07.2020 22:00:00 17,8 7,8 13 7 N 1014,4 16 -
02.07.2020 21:00:00 20,0 7,8 18 10 N 1013,7 16 -
02.07.2020 20:00:00 22,2 8,3 13 7 N 1013,3 16 -
02.07.2020 19:00:00 22,8 7,2 8 4 W 1013,4 16 -
02.07.2020 18:00:00 22,2 7,2 8 4 NW 1013,9 16 0,0
02.07.2020 17:00:00 22,8 7,2 8 4 N 1014,2 16 -
02.07.2020 16:00:00 22,2 7,8 13 7 NW 1014,3 16 -
02.07.2020 15:00:00 21,1 7,2 0 0 N 1014,5 16 -
02.07.2020 14:00:00 20,0 7,2 11 6 NNW 1014,5 16 -
02.07.2020 13:00:00 18,9 6,7 8 4 - 1014,4 16 -
02.07.2020 12:00:00 16,7 6,1 11 6 NW 1014,7 16 0,0
02.07.2020 11:00:00 14,4 8,9 8 4 W 1014,6 16 -
02.07.2020 10:00:00 13,9 5,6 0 0 N 1014,4 16 -
02.07.2020 09:00:00 12,2 7,2 13 7 SE 1014,2 16 -
02.07.2020 08:00:00 11,1 6,7 13 7 SE 1013,9 16 -
02.07.2020 07:00:00 9,4 6,1 15 8 E 1013,5 16 -
02.07.2020 06:00:00 6,7 6,1 0 0 N 1013,0 16 0,0
02.07.2020 05:00:00 6,7 6,1 0 0 N 1012,6 16 -
02.07.2020 04:00:00 7,8 5,6 0 0 N 1012,3 16 -
02.07.2020 03:00:00 7,2 5,6 0 0 N 1012,4 16 -
02.07.2020 02:00:00 7,8 6,1 0 0 N 1012,6 16 -
02.07.2020 01:00:00 9,4 6,1 5 3 NNE 1012,1 16 -
02.07.2020 00:00:00 9,4 6,7 8 4 NNW 1012,3 16 -
01.07.2020 23:00:00 12,2 6,7 5 3 NE 1011,9 16 0,5
01.07.2020 22:00:00 14,4 4,4 11 6 N 1011,1 16 -
01.07.2020 21:00:00 15,6 4,4 13 7 N 1010,4 16 -
01.07.2020 20:00:00 16,1 3,9 16 9 NNW 1010,3 16 -
01.07.2020 19:00:00 16,7 3,9 21 11 NW 1009,7 16 -
01.07.2020 18:00:00 18,3 2,8 21 11 WNW 1009,5 16 0,0
01.07.2020 17:00:00 19,4 3,3 22 12 W 1009,3 16 -
01.07.2020 16:00:00 19,4 4,4 26 14 W 1009,5 16 -
01.07.2020 15:00:00 17,8 4,4 15 8 NNW 1010,1 16 -
01.07.2020 14:00:00 15,6 5,6 18 10 NNW 1010,3 16 -

tt = temperature
td = dewpoint
ff = wind speed
dd = wind direction
ppp = reduced air pressure
vv = visibility
rr = precipitation

Next stations